Regional Weather Roundup
Issued by NWS

Home | Current Version | Previous Version | Graphics & Text | Print | Product List | Glossary On
Versions: 1 2 3 4 5 6 7 8 9 10 11 12 13 14 15 16 17 18 19 20 21 22 23 24 25 26 27 28 29 30 31 32 33 34 35 36 37 38 39 40 41 42 43 44 45 46 47 48 49 50
000
ASUS45 KBOU 301407
RWRCO

WEATHER ROUNDUP FOR COLORADO
NATIONAL WEATHER SERVICE DENVER/BOULDER CO
800 AM MDT SAT APR 30 2016

NOTE: "FAIR" INDICATES FEW OR NO CLOUDS BELOW 12000 FEET WITH NO
SIGNIFICANT WEATHER AND/OR OBSTRUCTIONS TO VISIBILITY.

COZ001>005-013-030-031-301500-
...NORTHWEST COLORADO...

CITY           SKY/WX    TMP DP  RH WIND       PRES   REMARKS
CRAIG          CLOUDY    36  33  89 N7        29.90R
HAYDEN         CLOUDY    32  28  86 E6        29.90R WCI  26
MEEKER         CLOUDY    35  31  85 W6        29.90R WCI  30
MOUNT WERNER   NOT AVBL
STEAMBOAT SPGS CLOUDY    32  29  89 CALM      29.89R
WALDEN         CLOUDY    27  21  80 N16       29.69R WCI  14
$$

COZ006>008-011-301500-
...WEST CENTRAL VALLEYS...

CITY           SKY/WX    TMP DP  RH WIND       PRES   REMARKS
GRAND JUNCTION CLOUDY    43  39  86 NW6       29.88R
MONTROSE       CLOUDY    42  34  73 NW7       29.90R
EAGLE          PTSUNNY   37  34  87 CALM      29.90R
RIFLE          CLOUDY    41  31  67 W6        29.89R
DELTA          NOT AVBL
NUCLA          NOT AVBL
$$

COZ017>023-064>068-301500-
...SOUTHWEST COLORADO...

CITY           SKY/WX    TMP DP  RH WIND       PRES   REMARKS
DURANGO        FAIR      32  28  85 CALM      29.89R
CORTEZ         FAIR      34  31  88 NE3       29.89R
PAGOSA SPRINGS CLOUDY    34  34 100 CALM      29.90R
TELLURIDE      CLOUDY    31  31 100 CALM      29.91R
WOLF CREEK PAS CLOUDY    19  19 100 SW5       29.94R FOG     WCI  13
$$

COZ009-010-012-014-032>034-037-058>063-301500-
...CENTRAL COLORADO...

CITY           SKY/WX    TMP DP  RH WIND       PRES   REMARKS
ASPEN          CLOUDY    34  30  85 N3        29.86R
BUENA VISTA    CLOUDY    24  22  93 CALM      29.86R
COPPER MTN     NOT AVBL
BERTHOUD PASS  CLOUDY    12   3  67 N18G24    29.84R WCI  -5
COTTONWOOD PAS FAIR      28  27  93 CALM      29.85R
GUNNISON       CLOUDY    34  28  80 N6        29.88R WCI  29
KREMMLING      FLURRIES  32  25  74 NW9G17    29.90R WCI  24
LEADVILLE      LGT SNOW  25  21  85 VRB3      29.85R FOG
MONARCH PASS   CLOUDY    21  19  93 MISG      29.97R
SALIDA         CLOUDY    32  29  90 CALM      29.94R
SUNLIGHT       FOG      N/A N/A N/A CALM      29.93R VSB<1/4
WILKERSON PASS CLOUDY   N/A N/A N/A NW6       29.87R
$$

COZ069>075-301500-
...SAN LUIS VALLEY/SANGRE DE CRISTO MOUNTAINS...

CITY           SKY/WX    TMP DP  RH WIND       PRES   REMARKS
ALAMOSA        CLOUDY    32  30  92 SW7       29.86R WCI  26
LA VETA PASS   NOT AVBL
SAGUACHE       MIX PCPN  32  30  93 CALM      29.86S
$$

COZ035-036-038>040-301500-
...NORTHERN COLORADO FRONT RANGE...

CITY           SKY/WX    TMP DP  RH WIND       PRES   REMARKS
DENVER INTL AP LGT SNOW  32  28  85 N14       29.90R FOG     WCI  22
DMNS CITY PARK   N/A     33  31  93 N12G18    29.92R WCI  24
AURORA         LGT SNOW  32  30  93 N12       29.91R FOG     WCI  23
FRONT RANGE AP CLOUDY    30  30 100 N13       29.90R FOG     WCI  20
ERIE MUNI ARPT LGT SNOW  34  32  92 N7        29.92R WCI  28
BOULDER MUN AP LGT SNOW  34  34 100 NE7       29.92R WCI  28
CENTENNIAL     LGT SNOW  31  29  92 N16       29.89S FOG     WCI  20
BROOMFIELD     LGT SNOW  32  32 100 N12       29.91R WCI  23
FORT COLLINS   FAIR      36  28  75 N21       29.94R
LONGMONT       CLOUDY    38  33  82 N3        29.94R HAZE
$$

COZ041-046-047-076>085-087-088-301500-
...PIKES PEAK/PALMER DIVIDE AND SOUTHERN FOOTHILLS...

CITY           SKY/WX    TMP DP  RH WIND       PRES   REMARKS
COLO. SPRINGS  CLOUDY    33  25  72 NW21G28   29.86R WCI  21
A. F. ACADEMY  FLURRIES  32  27  80 N23G29    29.85R WCI  19
SCHRIEVER AFB  NOT AVBL
ELLICOTT       NOT AVBL
FALCON         FAIR      31  26  83 N16G28    29.84R WCI  20
FORT CARSON    FAIR      32  28  86 N7        29.85R WCI  26
LIMON          LGT SNOW  30  28  92 NW22      29.84S FOG     WCI  17
MONUMENT HILL  CLOUDY    27  27 100 N17G25    29.88R FOG     WCI  14
TRINIDAD       CLOUDY    30  28  92 W8        29.87R WCI  22
$$

COZ042>045-048>051-090-091-301500-
...NORTHEAST COLORADO...

CITY           SKY/WX    TMP DP  RH WIND       PRES   REMARKS
GREELEY ARPT   CLOUDY    34  30  86 N18       29.93R WCI  23
AKRON          LGT SNOW  31  30  96 N21       29.85R VSB 1   WCI  18
BURLINGTON     CLOUDY    33  30  88 N16       29.82R FOG     WCI  23
WRAY           NOT AVBL
STERLING       CLOUDY    34  32  93 N13G20    29.87R WCI  25
HOLYOKE        NOT AVBL
FORT MORGAN    FLURRIES  33  31  94 NW13      29.90R WCI  23
$$

COZ086-089-092>099-301500-
...SOUTHEAST COLORADO...

CITY           SKY/WX    TMP DP  RH WIND       PRES   REMARKS
PUEBLO         PTSUNNY   39  34  82 W7        29.87R
LA JUNTA       FAIR      42  34  73 N16       29.87R
LAMAR          FAIR      39  34  82 NW14      29.84S
SPRINGFIELD      N/A     39  32  76 NW25G32   29.83R
$$



USA.gov is the U.S. government's official web portal to all federal, state and local government web resources and services.